Simultaneous Nadir Overpasses (SNOs) Predictions

Prediction of SNOs between GOES-16 and AQUA Satellite Orbit:

Table of predicted SNOs for the next 14.0 days since TLE Epoch: 11/12/2022
Index Date Time (GOES-16) GOES-16 Lat,Lon AQUA Lat,Lon Distance(km) Time Diff (sec)
1 11/12/2022 18:42:39 -0.02, -75.20 -0.11, -75.50 34.33 80
2 11/14/2022 18:32:27 -0.02, -75.21 0.61, -72.37 323.44 80
3 11/15/2022 06:53:31 0.01, -75.21 0.51, -77.47 257.69 80
4 11/17/2022 06:37:58 0.01, -75.23 -0.18, -74.34 101.08 80
5 11/17/2022 18:59:12 -0.01, -75.23 -0.89, -79.49 482.92 80
6 11/19/2022 06:25:04 0.01, -75.25 -0.83, -71.19 460.74 80
7 11/19/2022 18:46:18 -0.01, -75.26 -0.22, -76.34 122.98 80
8 11/21/2022 18:36:03 -0.01, -75.29 0.41, -73.19 237.63 80
9 11/22/2022 06:57:08 0.01, -75.29 0.62, -78.31 342.51 80
10 11/24/2022 06:41:33 0.01, -75.32 -0.05, -75.17 18.55 80
